Lapse_Rate
6.8 6.7 6.8 7.1 7.1 7.1 7.8 7.9 7.5 6.9 6.7 6.5 6.4 6.2 6.3 6.4 6.4 6.6 6.6 6.5 6.3 6.2 6.0 6.0 6.0 6.0 5.9 5.8 5.8 5.8 5.9 6.0 6.0 6.0 5.9 5.9 5.9 5.9 5.8 5.9 6.0 6.1 6.1 6.1 6.1 6.1 6.1 6.1 6.0
6.7 6.7 6.8 6.9 7.0 8.0 8.6 8.1 7.3 7.1 6.7 6.9 7.0 6.6 6.4 6.5 6.6 6.7 6.7 6.6 6.4 6.2 6.2 6.0 6.0 5.9 5.9 5.9 6.0 6.0 6.0 6.0 6.0 6.0 6.0 5.9 6.0 6.0 6.0 6.1 6.1 6.2 6.2 6.3 6.3 6.3 6.3 6.3 6.2
6.6 6.7 6.7 6.7 7.2 7.8 8.6 7.6 7.6 7.1 7.4 7.0 6.8 6.7 6.5 6.6 6.7 6.6 6.7 6.6 6.4 6.3 6.2 6.1 6.0 6.0 6.0 6.0 6.0 6.0 6.1 6.0 6.0 6.0 6.0 6.1 6.1 6.2 6.2 6.2 6.2 6.2 6.2 6.2 6.3 6.4 6.4 6.4 6.5
6.7 6.6 6.7 6.8 7.5 7.9 8.1 7.6 7.2 7.6 7.3 7.2 6.4 6.7 6.7 6.8 6.7 6.6 6.7 6.6 6.4 6.3 6.2 6.1 6.1 6.0 6.0 6.1 6.1 6.1 6.1 6.1 6.1 6.1 6.2 6.2 6.3 6.3 6.2 6.2 6.1 6.2 6.2 6.2 6.3 6.4 6.4 6.4 6.5
6.6 6.5 6.4 6.7 7.3 8.0 7.5 7.3 7.5 7.5 7.2 7.1 7.0 6.9 7.0 6.9 6.7 6.7 6.7 6.7 6.5 6.4 6.2 6.1 6.0 6.1 6.1 6.1 6.1 6.1 6.1 6.1 6.2 6.1 6.3 6.4 6.3 6.3 6.3 6.2 6.2 6.3 6.4 6.5 6.5 6.5 6.6 6.7 6.7
6.2 6.2 6.7 6.8 7.2 7.7 7.3 7.8 7.6 7.3 7.2 7.1 6.9 7.2 7.0 6.9 6.8 6.7 6.8 6.7 6.6 6.4 6.2 6.2 6.2 6.2 6.2 6.2 6.1 6.1 6.2 6.1 6.1 6.2 6.3 6.3 6.3 6.2 6.1 6.1 6.2 6.3 6.4 6.6 6.6 6.6 6.6 6.7 6.7
6.0 5.8 6.4 7.1 7.5 7.8 7.4 7.9 7.6 7.0 7.3 7.2 6.8 6.8 7.1 6.9 6.8 6.8 6.8 6.7 6.6 6.4 6.3 6.2 6.2 6.2 6.2 6.2 6.2 6.2 6.1 6.1 6.1 6.1 6.2 6.2 6.2 6.0 6.0 6.0 6.0 5.9 6.0 6.3 6.6 6.7 6.7 6.8 6.8
5.9 5.8 6.5 7.1 7.5 7.8 7.2 7.7 7.3 6.7 6.8 7.4 7.2 6.7 7.0 7.0 6.8 6.8 6.8 6.7 6.5 6.5 6.4 6.3 6.2 6.2 6.2 6.2 6.2 6.1 6.1 6.1 6.0 6.0 6.1 6.0 6.0 5.9 5.9 5.9 5.9 5.8 5.8 5.9 6.4 6.9 7.0 7.1 7.2
5.7 5.2 6.2 7.0 7.2 7.7 7.4 7.7 7.6 7.3 7.2 7.1 7.0 7.1 7.1 7.0 6.9 6.9 6.9 6.7 6.6 6.5 6.5 6.4 6.3 6.2 6.3 6.1 6.2 6.1 6.0 6.0 5.9 6.0 6.1 6.1 6.0 6.0 6.0 5.8 5.7 5.6 5.5 5.7 6.7 7.4 7.4 7.4 7.3
5.6 5.4 6.5 7.0 7.2 7.6 7.6 7.6 7.8 7.4 7.2 7.1 7.0 7.1 7.1 6.9 6.9 6.9 6.9 6.7 6.7 6.6 6.6 6.6 6.4 6.4 6.4 6.3 6.2 6.1 6.1 6.0 6.0 6.0 6.1 6.0 6.0 6.0 6.0 5.9 5.7 5.6 5.6 6.2 7.3 7.7 7.5 7.3 7.3
5.4 5.3 6.4 6.5 6.5 6.9 7.4 7.4 7.7 7.2 7.2 7.0 7.0 7.1 7.0 6.8 6.9 7.0 6.9 6.8 6.8 6.7 6.7 6.6 6.6 6.5 6.4 6.3 6.2 6.1 6.1 6.1 6.0 6.0 6.1 6.1 6.2 6.2 6.2 6.1 6.0 6.0 6.0 6.6 7.5 7.6 7.5 7.4 7.2
4.9 5.5 6.0 5.7 6.8 7.1 7.5 7.3 7.7 7.1 6.6 6.9 7.0 7.1 7.0 6.8 6.9 6.8 6.8 6.8 6.8 6.8 6.7 6.8 6.7 6.4 6.4 6.3 6.2 6.1 6.2 6.2 6.1 6.1 6.2 6.3 6.3 6.3 6.3 6.1 6.1 6.1 6.3 6.6 7.1 7.3 7.3 7.2 7.1
4.9 5.1 5.2 6.3 6.8 7.0 7.2 7.5 7.3 7.2 7.1 7.1 6.9 7.0 7.0 6.9 6.9 6.9 6.8 6.9 6.9 6.8 6.8 6.7 6.6 6.4 6.4 6.3 6.2 6.2 6.3 6.2 6.1 6.1 6.2 6.3 6.2 6.3 6.3 6.2 6.2 6.0 6.3 6.5 6.7 6.9 7.0 6.9 6.9
5.2 4.8 5.6 6.4 6.8 6.9 7.2 7.3 7.2 7.1 7.0 6.9 6.9 6.9 6.9 6.8 6.9 6.9 7.0 7.1 7.0 6.9 6.8 6.7 6.6 6.5 6.3 6.3 6.3 6.3 6.3 6.2 6.2 6.2 6.1 6.2 6.1 6.1 6.1 6.3 6.2 6.2 6.2 6.5 6.6 6.7 6.8 6.7 6.7
5.4 5.5 6.2 6.5 6.7 6.8 6.9 6.9 6.4 7.0 6.8 6.8 6.8 6.9 6.9 6.8 6.9 6.9 7.2 7.1 7.0 6.9 6.8 6.7 6.6 6.5 6.4 6.3 6.3 6.3 6.2 6.2 6.1 6.1 6.0 6.1 6.0 6.0 5.9 6.1 6.1 6.2 6.2 6.3 6.4 6.5 6.6 6.5 6.5
5.0 5.9 6.0 6.4 6.5 6.8 6.8 6.5 6.3 6.6 6.7 6.7 6.8 6.8 6.8 6.8 6.9 7.1 7.1 7.0 7.0 6.9 6.8 6.7 6.6 6.4 6.4 6.3 6.3 6.3 6.2 6.2 6.0 6.0 6.0 6.1 6.0 5.8 5.7 5.9 6.0 5.9 6.1 6.2 6.2 6.3 6.4 6.4 6.3
5.9 6.1 6.4 6.2 6.3 6.4 6.5 7.0 6.6 6.6 6.7 6.8 6.9 6.8 6.8 6.9 7.0 7.0 7.0 7.1 7.0 6.9 6.8 6.7 6.5 6.5 6.4 6.3 6.3 6.2 6.1 6.1 6.0 5.9 5.9 6.0 5.8 5.6 5.5 5.6 5.7 5.7 5.6 5.8 5.9 5.9 6.0 6.0 5.9
5.9 6.9 6.9 6.1 6.1 6.4 6.5 6.1 6.6 6.6 6.6 6.8 6.9 6.9 6.9 7.1 7.1 7.1 7.0 7.0 7.0 6.9 6.8 6.7 6.6 6.6 6.5 6.3 6.2 6.1 6.0 6.0 5.9 5.8 5.8 5.7 5.6 5.4 5.3 5.3 5.4 5.5 5.4 5.3 5.3 5.3 5.3 5.4 5.5
7.1 7.8 7.1 6.4 6.4 6.6 6.5 6.3 6.7 6.8 6.8 6.9 7.1 7.1 7.1 7.0 7.1 7.1 7.0 7.0 6.9 6.9 6.8 6.7 6.7 6.6 6.4 6.2 6.1 6.0 5.9 5.9 5.8 5.7 5.7 5.6 5.4 5.3 5.2 5.2 5.2 5.3 5.2 5.0 4.9 4.9 5.0 5.0 5.1
8.0 7.3 6.9 6.4 6.9 6.6 6.2 6.3 6.7 6.7 6.9 7.0 7.1 7.1 7.0 6.9 7.3 7.1 7.1 7.0 6.8 6.8 6.7 6.7 6.6 6.5 6.2 6.1 6.0 5.9 5.8 5.7 5.7 5.7 5.6 5.4 5.4 5.3 5.2 5.3 5.4 5.3 5.2 5.1 5.0 4.9 4.9 4.8 4.9
7.5 7.8 6.8 6.8 6.9 6.6 6.8 6.3 6.2 6.8 7.0 7.2 7.3 7.2 7.2 7.1 7.1 7.3 7.1 7.0 6.8 6.7 6.6 6.6 6.4 6.2 6.2 6.1 6.0 5.8 5.7 5.7 5.6 5.6 5.5 5.5 5.5 5.4 5.3 5.4 5.5 5.5 5.4 5.3 5.2 5.1 5.0 5.0 5.0
7.3 7.4 7.0 7.2 7.1 7.0 6.7 7.2 7.1 7.0 7.1 7.2 7.3 7.3 7.2 7.2 7.3 7.3 7.1 7.0 6.8 6.7 6.6 6.4 6.3 6.2 6.1 5.9 5.8 5.8 5.7 5.6 5.6 5.6 5.6 5.6 5.5 5.5 5.6 5.6 5.7 5.7 5.7 5.6 5.6 5.5 5.3 5.2 5.1
7.4 7.5 7.3 7.2 6.8 6.9 6.7 6.9 7.6 6.9 7.2 7.4 7.4 7.5 7.5 7.4 7.3 7.3 7.1 6.9 6.7 6.6 6.5 6.4 6.3 6.1 5.9 5.8 5.9 5.8 5.7 5.7 5.6 5.5 5.5 5.4 5.4 5.5 5.6 5.8 5.8 5.9 5.8 5.7 5.7 5.6 5.4 5.2 5.0
7.5 7.4 7.2 6.8 6.9 6.7 6.6 6.7 7.9 7.4 7.5 7.3 7.5 7.6 7.6 7.5 7.4 7.2 7.0 6.8 6.6 6.5 6.4 6.2 6.0 5.9 5.8 5.8 5.8 5.8 5.8 5.7 5.6 5.4 5.3 5.3 5.4 5.4 5.7 5.8 5.8 5.8 5.7 5.6 5.5 5.4 5.2 5.1 5.1
7.4 7.4 7.0 6.9 6.5 6.9 6.4 6.6 7.5 7.2 7.4 7.5 7.5 7.6 7.5 7.4 7.1 6.9 6.7 6.5 6.4 6.2 6.1 5.9 5.8 5.8 5.8 5.8 5.8 5.8 5.7 5.6 5.5 5.3 5.3 5.3 5.3 5.4 5.6 5.6 5.5 5.5 5.4 5.3 5.2 5.3 5.2 5.1 5.3
7.0 7.3 7.1 6.9 6.7 7.1 6.2 6.2 7.1 7.4 7.5 7.4 7.4 7.3 7.3 7.1 6.9 6.5 6.2 6.1 6.0 5.9 5.8 5.7 5.7 5.8 5.9 5.9 5.8 5.7 5.6 5.5 5.4 5.4 5.3 5.2 5.3 5.4 5.3 5.2 5.2 5.1 5.1 5.2 5.2 5.2 5.2 5.1 5.2
6.8 6.7 6.8 6.6 6.4 6.6 6.7 6.6 7.1 7.3 7.4 7.3 7.2 6.9 6.7 6.5 6.3 6.2 6.0 6.0 5.9 5.8 5.8 5.8 5.8 5.9 5.8 5.7 5.7 5.6 5.4 5.3 5.3 5.3 5.3 5.3 5.3 5.2 5.1 5.0 4.9 5.0 5.0 5.0 5.0 5.0 5.1 5.2 5.3
6.3 6.6 6.7 6.5 6.2 7.1 6.7 6.8 6.8 7.0 7.1 7.0 6.8 6.6 6.5 6.3 6.2 6.3 6.2 6.0 5.9 5.9 5.9 5.8 5.7 5.6 5.6 5.6 5.6 5.4 5.2 5.2 5.2 5.1 5.1 5.1 5.1 5.1 5.0 4.9 4.8 4.7 4.7 4.8 4.8 4.9 5.0 5.2 5.2
6.0 6.2 6.4 6.4 6.1 7.1 7.4 7.0 6.9 6.9 6.8 6.7 6.6 6.4 6.3 6.4 6.5 6.6 6.5 6.3 6.1 6.0 5.8 5.7 5.6 5.6 5.6 5.5 5.4 5.1 5.0 4.9 4.8 4.8 4.9 4.9 4.8 4.7 4.6 4.6 4.6 4.6 4.7 4.8 4.8 4.8 4.9 5.0 5.2
6.1 6.1 6.0 6.3 5.9 5.7 5.8 6.6 6.9 6.8 6.6 6.4 6.4 6.5 6.5 6.3 6.2 6.2 6.2 6.3 6.1 5.9 5.8 5.7 5.5 5.4 5.2 5.1 5.0 4.8 4.7 4.7 4.6 4.7 4.7 4.6 4.4 4.3 4.4 4.5 4.5 4.6 4.6 4.7 4.7 4.8 5.0 5.2 5.4
Wind_Speed
14 9 6 4 5 6 11 2 3 5 4 4 9 2 7 12 8 3 5 8 11 11 14 13 13 12 12 11 11 11 11 11 11 11 12 12 12 11 11 11 11 11 11 12 12 11 11 10 8
9 6 5 3 6 9 7 4 6 6 7 6 9 3 3 5 8 10 9 5 7 10 13 12 12 12 11 11 11 11 10 10 10 11 11 11 11 11 10 10 10 10 10 10 11 11 10 10 10
9 6 5 4 9 13 7 3 5 7 8 10 6 5 3 4 12 6 10 5 9 10 12 12 12 11 11 11 11 11 11 11 11 11 11 11 11 11 11 11 10 9 9 9 9 10 11 11 10
6 4 4 9 15 15 8 1 7 10 6 5 5 8 7 8 9 9 10 9 9 11 12 12 11 11 11 11 11 10 10 11 11 11 11 12 11 12 11 11 12 12 11 10 10 11 11 11 10
5 5 9 13 20 16 5 3 8 12 10 10 8 7 5 6 11 14 11 9 9 9 10 11 10 10 10 11 10 11 10 11 11 11 11 11 11 11 12 12 12 13 13 12 11 11 11 11 11
6 7 10 16 21 18 7 7 10 11 10 9 6 10 7 11 14 11 9 8 8 7 7 9 10 10 10 10 10 10 10 10 10 10 11 11 10 10 11 11 12 12 11 11 11 11 11 11 11
13 10 16 18 19 15 12 9 12 11 9 9 5 8 7 13 15 11 10 8 7 6 6 5 6 8 11 10 9 9 8 9 9 9 9 7 7 8 10 10 11 11 11 10 10 10 10 10 9
10 12 20 19 18 17 10 12 10 10 9 9 1 6 7 15 16 12 10 8 7 6 5 5 4 4 4 8 7 7 6 6 6 6 5 3 2 3 7 10 10 10 9 9 9 9 9 10 8
5 8 16 22 18 13 11 13 6 5 6 4 3 6 5 20 17 13 11 8 6 5 4 4 4 4 4 5 4 6 5 2 5 1 3 4 7 8 6 7 7 8 8 8 8 9 9 10 11
12 12 18 16 14 13 15 14 12 9 10 7 7 7 18 18 16 14 12 10 8 7 5 3 4 4 3 3 2 2 3 5 6 6 7 7 6 5 5 0 1 1 7 3 4 5 8 7 9
13 15 16 3 2 7 14 13 11 10 11 8 12 14 18 16 15 13 12 11 9 8 5 4 4 3 2 3 2 2 3 4 4 6 7 6 6 8 7 7 8 9 9 10 10 9 9 9 8
12 18 6 5 1 7 15 10 8 11 6 7 2 16 18 18 15 13 12 11 10 8 7 5 3 3 3 1 2 2 3 3 4 5 7 6 6 6 6 6 7 8 9 10 10 9 9 9 8
14 16 5 3 5 8 9 11 9 8 4 5 11 14 17 16 14 12 10 8 8 8 7 6 4 3 2 1 1 1 2 2 3 4 5 7 6 5 7 6 7 7 9 9 9 9 9 8 8
18 10 7 6 7 6 10 7 10 6 7 10 11 13 14 14 14 12 10 9 8 7 8 7 5 4 3 0 1 1 1 2 2 3 5 6 6 6 5 6 6 7 8 9 9 8 7 6 7
12 11 8 8 8 5 9 8 8 9 9 11 11 11 12 12 13 12 11 10 9 7 8 8 6 5 3 1 1 1 1 2 1 2 3 4 4 5 5 4 5 7 8 8 9 8 8 5 6
19 14 11 7 8 4 6 12 10 8 10 11 12 11 11 12 12 10 9 8 8 8 9 8 5 5 3 2 1 2 2 3 2 2 2 2 3 4 4 4 4 7 7 7 6 5 5 5 5
17 15 18 8 5 5 11 8 12 8 9 11 11 11 11 11 10 9 8 8 9 8 9 8 7 5 3 2 3 3 3 4 2 3 3 2 2 3 4 4 4 6 6 5 5 5 5 5 5
19 19 20 12 9 9 13 5 8 7 9 10 11 12 12 12 12 9 9 8 8 8 8 8 6 5 3 2 3 3 3 4 3 4 4 4 4 3 4 4 3 4 3 4 4 6 5 5 5
16 17 18 13 4 9 14 10 8 9 8 11 11 12 12 11 9 6 7 6 7 7 8 8 7 5 3 3 3 3 3 2 3 5 6 6 5 4 5 4 4 4 3 4 5 5 6 5 6
16 14 14 6 4 4 8 11 8 10 10 11 11 12 11 10 9 8 6 6 7 8 8 7 6 4 3 2 2 2 3 3 4 5 6 6 6 6 6 5 4 4 4 4 4 4 4 5 4
16 17 14 9 8 3 6 9 11 10 9 8 9 8 9 11 11 10 7 7 7 8 8 7 5 3 3 4 3 3 3 4 4 5 4 5 7 6 7 8 6 5 3 4 4 3 4 4 4
10 2 12 15 12 6 4 4 17 15 13 13 13 12 11 10 7 4 7 8 8 7 6 5 4 3 4 4 5 6 5 6 5 4 4 4 7 8 8 8 8 6 4 5 4 3 3 3 4
5 8 11 13 5 5 5 3 5 8 14 16 15 13 10 7 7 7 7 8 8 7 5 3 2 3 3 5 6 5 6 5 5 5 6 7 6 7 8 8 8 6 4 5 6 5 5 4 4
11 15 11 6 3 1 4 3 6 9 7 10 14 12 10 8 7 8 8 9 8 6 4 3 2 1 1 2 3 5 6 6 5 5 5 5 4 4 6 6 7 8 6 6 6 6 6 5 5
7 13 4 2 1 1 1 2 8 3 3 2 7 11 10 9 10 9 10 9 8 6 5 3 1 2 1 1 1 2 3 4 5 4 4 4 4 4 4 5 5 5 6 6 7 6 7 6 6
7 2 3 5 5 4 2 5 2 5 2 1 4 10 10 10 9 9 9 8 7 6 4 3 1 1 1 1 1 1 1 1 1 2 2 3 3 4 5 6 7 8 9 8 7 6 6 7 6
4 2 1 4 3 2 4 4 6 1 3 3 6 9 9 9 9 9 9 7 7 5 4 2 1 1 1 1 1 2 3 3 3 3 2 3 3 4 5 7 6 7 7 7 7 6 7 7 7
3 3 2 1 3 3 4 3 1 2 3 5 7 8 9 9 10 10 9 8 6 4 3 2 1 1 1 2 2 2 3 3 2 3 3 4 5 6 6 7 7 8 7 7 8 7 7 8 7
3 2 2 2 2 2 1 4 3 4 3 4 7 10 10 11 11 10 9 8 6 5 4 4 3 3 3 3 3 3 3 2 3 3 4 5 6 6 7 7 7 8 8 8 8 8 9 9 10
3 2 3 2 3 2 2 2 2 3 1 1 5 7 9 10 11 11 10 9 7 6 5 5 5 4 3 2 2 2 2 2 3 4 5 6 6 7 7 8 9 9 9 9 9 9 9 10 11
Wind_Direction
288 265 287 253 247 228 266 244 282 173 186 82 112 347 66 29 4 60 109 117 102 106 108 91 84 80 75 69 65 59 53 47 43 40 33 27 23 18 16 15 16 16 10 20 25 24 20 15 7
274 257 249 276 251 240 259 178 211 176 89 150 102 125 127 81 62 115 124 102 135 108 96 87 81 76 71 64 59 53 49 46 41 40 34 29 28 27 24 21 17 15 13 15 13 11 11 8 2
260 264 235 223 241 243 258 105 207 112 142 161 127 12 62 74 108 113 116 150 134 103 97 85 74 67 60 58 57 52 49 46 44 41 36 33 27 26 24 23 18 10 5 5 11 10 7 1 356
198 194 245 235 232 236 264 116 123 151 151 192 156 111 93 4 123 124 141 176 126 114 106 85 74 69 64 61 58 54 51 50 46 41 38 34 32 27 27 25 24 21 19 15 19 20 18 15 11
228 221 223 223 238 242 237 259 178 178 162 171 206 127 91 117 111 130 160 136 126 105 105 88 76 70 65 61 57 55 51 50 48 43 39 36 33 31 30 29 27 26 25 23 21 19 18 19 18
199 229 217 219 222 229 212 192 189 188 163 139 179 125 110 131 134 149 134 117 106 105 101 100 86 74 69 62 57 56 53 49 47 43 39 36 33 34 34 31 28 23 20 17 14 12 10 8 7
231 207 224 220 227 205 207 189 192 184 178 174 129 146 116 156 144 142 125 116 110 107 105 94 96 115 94 70 59 61 56 50 45 41 36 35 41 39 34 32 22 17 12 10 6 1 357 351 347
229 228 232 229 220 212 182 186 193 190 152 78 303 167 165 162 148 139 135 128 126 120 111 103 94 82 64 91 73 73 63 55 49 45 22 343 188 66 55 19 21 15 9 7 2 354 344 333 323
243 221 217 218 229 201 155 175 196 58 120 174 116 36 89 137 149 149 144 142 142 137 123 106 83 79 67 69 101 161 137 168 199 175 4 287 21 21 16 52 19 16 12 10 1 353 338 315 271
210 221 217 207 219 228 176 187 163 172 157 159 138 107 124 147 160 160 165 165 172 158 136 121 100 81 72 73 49 39 39 24 21 21 10 12 14 14 341 252 10 259 356 265 334 317 294 305 350
211 226 224 170 23 292 181 198 170 185 193 180 184 152 152 163 169 173 177 174 171 155 142 135 116 98 64 57 354 25 30 10 21 14 15 4 14 2 10 360 3 353 360 358 354 350 1 352 352
217 225 278 126 186 225 180 162 191 194 68 78 117 157 162 170 174 180 183 174 156 160 147 140 141 121 82 20 29 27 23 12 10 22 8 12 11 4 357 3 357 359 353 356 352 345 344 338 345
230 192 210 171 186 203 176 178 166 148 106 122 122 153 170 173 173 179 185 171 166 168 158 163 159 141 116 65 80 15 17 20 21 18 18 13 16 358 346 5 4 3 354 355 346 343 337 335 341
203 165 161 170 166 156 176 158 166 138 138 129 147 163 173 177 176 174 181 182 183 174 171 164 167 158 152 154 25 64 359 1 359 26 16 13 4 356 354 355 4 3 1 350 340 340 330 328 334
165 153 155 173 178 155 190 176 203 133 150 147 164 168 174 181 178 186 184 194 187 184 179 176 171 166 175 172 269 287 181 264 314 9 23 4 355 348 348 3 357 358 355 349 341 339 332 324 334
182 170 172 161 178 160 206 185 143 164 167 163 164 169 178 186 188 194 183 196 190 185 182 177 170 179 175 165 246 254 234 251 239 283 314 339 339 347 344 350 9 353 349 350 346 340 338 330 340
191 182 191 152 203 164 211 185 145 172 190 177 177 178 186 188 198 197 196 198 196 200 188 178 180 176 179 190 258 259 260 252 233 254 272 283 294 327 330 350 351 347 340 343 340 339 339 332 337
186 193 188 169 176 202 192 134 154 181 195 196 190 191 193 197 200 202 205 204 206 196 188 184 178 174 185 230 260 252 254 256 248 262 259 275 280 286 307 312 322 330 322 336 341 336 334 323 333
185 202 179 128 146 198 195 196 181 186 204 208 204 201 204 205 180 185 203 209 202 193 189 183 183 188 201 236 266 248 256 248 255 248 260 258 269 276 282 293 294 307 307 323 326 332 328 333 345
188 164 161 103 159 238 180 211 176 189 211 211 211 216 212 206 175 193 196 198 197 192 195 188 195 185 217 263 266 287 300 291 290 290 266 260 264 259 269 275 289 290 301 301 313 335 331 315 13
187 191 150 154 149 74 174 222 199 207 209 208 228 240 232 224 214 184 197 191 191 189 190 194 193 215 245 245 248 255 261 262 261 250 248 243 255 259 264 273 275 285 282 289 304 300 313 319 317
160 348 152 141 158 180 215 243 197 196 211 216 212 209 218 212 222 212 185 180 181 174 166 181 205 240 243 245 249 258 275 290 300 305 304 287 263 268 265 266 273 276 283 282 284 279 280 288 293
119 160 149 159 137 152 175 252 136 197 214 216 212 203 200 194 196 181 182 164 156 151 166 179 213 246 263 260 253 271 279 287 293 291 287 280 270 263 271 268 272 269 267 272 277 279 260 255 268
145 123 111 122 140 188 90 258 224 182 232 219 195 194 182 174 160 147 141 148 147 144 144 145 160 113 292 264 262 261 274 288 292 294 291 282 284 281 276 267 269 273 273 275 270 265 260 261 261
229 155 120 115 146 217 77 213 259 113 81 25 200 184 175 171 162 157 161 161 154 148 143 142 136 106 19 344 260 269 281 289 290 299 294 299 290 297 309 312 294 283 276 271 272 271 267 265 257
172 270 168 150 180 149 46 222 234 46 60 345 233 183 167 174 167 168 163 161 158 154 153 159 155 137 50 59 102 114 58 336 338 339 317 301 313 323 329 315 307 300 297 292 281 272 268 268 267
158 178 32 101 64 171 173 238 199 225 170 156 167 173 180 181 174 173 171 169 163 171 167 171 184 157 102 104 129 91 62 44 33 17 359 350 339 335 336 329 322 317 309 303 297 287 285 280 277
317 115 162 136 136 200 166 252 294 51 186 175 183 198 196 189 189 182 180 178 180 171 165 164 163 136 130 132 96 83 69 58 46 40 13 356 348 345 337 333 329 322 316 312 306 298 293 290 283
156 161 64 57 2 346 347 103 51 69 48 207 211 209 205 200 198 191 190 188 187 180 182 172 166 152 135 124 110 98 76 41 19 12 2 358 339 344 333 331 324 318 315 314 307 301 298 293 291
320 9 323 285 134 55 9 285 122 100 49 313 251 221 220 210 207 199 196 193 191 196 182 185 173 157 136 124 115 77 42 8 1 3 354 350 341 336 333 328 323 321 320 319 312 307 306 302 297